Zurück zum Katalog

STARLINK-34513

AktivKommunikationVLEO
NORAD 64609·PAYLOAD·🇺🇸 United States

Gestartet Jun 25, 2025 von Cape Canaveral Space Force Station

Loading…

Nächste Überflüge (nächste 24 Stunden)

TLE

AktuellSource: CelesTrak SupGP

Epoche: Sep 15, 2026, 03:02 UTC

1 64609C 25137R   26258.12687500 -.00054508  00000+0 -16106-2 0  2582
2 64609  53.1578 173.0965 0001357  87.6332 139.8187 15.34414619    18

Verfolge STARLINK-34513 in Echtzeit mit AllMySat

Download on the App Store